Location: Borovka
(49.7741°N, 14.5280°E)
Time: 01:43:35
(UTC+00:00)

BlueWalker 3 - Pass Details

Date: 22 January 2026
Orbit: 451 x 461 km, 53.2° (Epoch: 13 February)

Event Time Altitude Azimuth Distance (km) Brightness Sun altitude
Rises 16:46:52 0° 198° (SSW) 2,445 6.0 -10.7°
Reaches altitude 10° 16:49:31 10° 177° (S) 1,576 4.6 -11.1°
Maximum altitude 16:51:53 17° 135° (SE) 1,214 3.6 -11.4°
Enters shadow 16:53:18 14° 107° (ESE) 1,359 3.6 -11.7°
